Regional Weather Roundup
Issued by NWS State College, PA

Home | Current Version | Previous Version | Text Only | Print | Product List | Glossary On
Versions: 1 2 3 4 5 6 7 8 9 10 11 12 13 14 15 16 17 18 19 20 21 22 23 24 25 26 27 28 29 30 31 32 33 34 35 36 37 38 39 40 41 42 43 44 45 46 47 48 49 50
000
ASUS41 KCTP 240310
RWRCTP

REGIONAL WEATHER ROUNDUP
NATIONAL WEATHER SERVICE STATE COLLEGE PA
1000 PM EST THU FEB 23 2017

Note: "fair" indicates few or no clouds below 12,000 feet with no
significant weather and/or obstructions to visibility.

* = STATION THAT DOES NOT REPORT PRECIPITATION /E.G. RAIN...SNOW...ETC/
    THUNDER OR FOG.

PAZ002>004-007>009-013>016-020>023-029>032-240400-
WESTERN PENNSYLVANIA

CITY           SKY/WX    TMP DP  RH WIND       PRES   REMARKS
ERIE           CLOUDY    49  45  86 NE8       29.83F
MEADVILLE      MOCLDY    53  49  86 E3        29.83S
FRANKLIN*      MOCLDY    54  50  87 N5        29.85R
NEW CASTLE     LGT RAIN  57  55  93 CALM      29.84R
BEAVER COUNTY  NOT AVBL
BUTLER*        CLOUDY    55  52  88 CALM      29.84S
PITTSBURGH INT CLOUDY    60  53  77 S5        29.82S
PITTSBURGH     CLOUDY    62  50  64 S6        29.83S
INDIANA*       PTCLDY    52  50  93 SE5       29.87F
LATROBE        CLOUDY    57  54  88 SW6       29.85S
WASHINGTON CO* CLOUDY    55  50  82 CALM      29.85S
$$

PAZ004>006-010>012-017>019-024>028-033>037-041-042-045-046-049>053-240400-
CENTRAL PENNSYLVANIA

CITY           SKY/WX    TMP DP  RH WIND       PRES   REMARKS
BRADFORD       MOCLDY    50  50 100 CALM      29.85F FOG
DUBOIS         CLOUDY    56  50  80 SW3       29.84S
CLEARFIELD       N/A    N/A N/A N/A MISG      29.85S
JOHNSTOWN      MOCLDY    59  51  75 S6        29.86S
ALTOONA        CLOUDY    58  51  78 SW3       29.87R
STATE COLLEGE  NOT AVBL
WILLIAMSPORT   MOCLDY    51  48  89 CALM      29.84S
SELINSGROVE    CLOUDY    55  51  86 CALM      29.84S
FT INDIANTOWN  CLOUDY    58  58 100 CALM      29.86R
CAPITAL CITY   CLOUDY    66  51  58 SE5       29.85S
HARRISBURG     CLOUDY    62  52  69 CALM      29.85R
YORK           PTCLDY    64  53  67 S8        29.85S
$$

PAZ038>040-043-044-047-048-054-055-060>062-067>071-240400-
EASTERN PENNSYLVANIA

CITY           SKY/WX    TMP DP  RH WIND       PRES   REMARKS
SCRANTON       CLOUDY    59  56  89 CALM      29.86S
MOUNT POCONO   CLOUDY    56  52  86 W5        29.89R
ALLENTOWN      CLOUDY    64  52  64 SW3       29.87R
QUAKERTOWN*    CLEAR     55  50  82 CALM      29.89S
READING        PTCLDY    63  54  72 S5        29.85S
LANCASTER      CLEAR     60  53  77 SE5       29.86S
COATESVILLE    CLEAR     59  52  77 VRB6      29.90S
POTTSTOWN      PTCLDY    62  51  67 CALM      29.89S
BLUE BELL      PTCLDY    61  52  72 S7        29.88S
DOYLESTOWN     CLEAR     63  53  70 S6        29.88R
WILLOW GROVE   NOT AVBL
NORTH PHILA    CLEAR     64  52  64 SW8       29.90S
PHILADELPHIA   PTCLDY    61  51  70 SW7       29.90R
$$



USA.gov is the U.S. government's official web portal to all federal, state and local government web resources and services.